{"data":{"norad_id":63707,"intl_designator":"2025-087L","name":"STARLINK-33982","alt_names":[],"object_type":"PAYLOAD","status":"ACTIVE","operator":null,"country":"US","launch_date":"2025-04-28","launch_site_code":"AFWTR","launch_vehicle":null,"mission":null,"orbit_class":"UNKNOWN","rcs_meters":null,"size_class":null,"mass_kg":null,"dimensions":null,"purposes":["comms"],"wikipedia_slug":null,"has_3d_model":false,"image_url":null,"decayed_at":null,"tle_current":{"epoch":"2026-09-20T08:46:24.434976Z","epoch_age_seconds":164148,"freshness":"FRESH","line1":"1 63707U 25087L   26263.36556059  .00009753  00000+0  29942-3 0  9995","line2":"2 63707  53.1602  34.0109 0001055  96.5056 263.6066 15.34398971 79028","mean_motion":15.34398971,"eccentricity":0.0001055,"inclination_deg":53.1602,"raan_deg":34.0109,"arg_perigee_deg":96.5056,"mean_anomaly_deg":263.6066,"bstar":0.00029942,"rev_number":7902,"period_min":93.847821017602,"perigee_km":461.98458964566,"apogee_km":463.42800758167,"semimajor_km":6840.8432986137,"source":"CELESTRAK","updated_at":"2026-09-21T09:00:35.064056Z"}}}